#timestamp,LO_Frequency,Hit,StdDev 
1505023215.1,286047001.0,N,1.3
1505023216.0,286047001.0,N,1.3
1505023235.8,286046998.1,N,1.3
1505023255.6,286046998.5,N,1.3
1505023275.5,286046998.8,N,1.3
1505023295.3,286047000.6,N,1.3
1505023315.2,286047000.7,N,1.3
1505023335.9,286046998.4,N,1.4
1505023355.7,286046999.9,N,1.3
1505023375.6,286047000.0,N,1.3
1505023395.4,286047000.0,N,1.3
1505023415.2,286047000.4,N,1.3
1505023435.1,286047000.9,N,1.3
1505023436.0,286047000.9,N,1.2
1505023455.8,286047000.9,N,1.2
1505023475.7,286047002.1,N,1.1
1505023495.5,286046999.8,N,1.2
1505023515.3,286047000.2,N,1.2
1505023535.2,286047001.0,N,1.2
1505023555.0,286047000.5,N,1.2
1505023555.9,286047000.5,N,1.2
1505023575.8,286047000.8,N,1.1
1505023595.6,286046998.2,N,1.1
1505023615.4,286047011.9,Y,0.0
1505023635.3,286047000.8,P,0.2
1505023655.1,286047000.4,N,0.2
1505023675.9,286047002.8,P,1.0
1505023695.7,286047000.2,N,1.0
1505023715.5,286047000.2,N,0.9
1505023735.4,286047000.1,N,0.9
1505023755.2,286047002.5,N,1.0
1505023775.0,286047002.6,N,1.1
1505023775.9,286047002.6,N,1.1
1505023795.8,286047002.0,N,1.1
1505023815.6,286047002.0,N,1.1
1505023835.5,286046999.7,N,1.1
1505023855.3,286047000.5,N,1.1
1505023875.1,286047001.1,N,1.1
1505023895.9,286047000.5,N,1.0
1505023915.7,286047001.1,N,1.0
1505023935.5,286047000.2,N,1.0
1505023955.4,286047002.7,N,1.0
1505023975.2,286047002.3,N,1.0
1505023995.1,286047002.8,N,1.1
1505023996.0,286047002.8,N,1.1
1505024015.8,286046999.9,N,1.1
1505024035.6,286047002.7,N,1.1
1505024055.5,286047002.4,N,1.1
1505024075.3,286047002.5,N,1.1
1505024095.2,286047002.0,N,1.1
1505024115.9,286047004.4,Y,0.0
1505024135.7,286047000.9,P,0.3
1505024155.6,286046998.1,P,1.5
1505024175.4,286046998.5,N,1.5
1505024195.2,286046998.7,N,1.4
1505024215.1,286046998.9,N,1.3
1505024216.0,286046998.9,N,1.2
1505024235.8,286046998.8,N,1.1
1505024255.7,286046999.3,N,1.1
1505024275.5,286046999.4,N,1.0
1505024295.3,286046998.6,N,1.0
1505024315.2,286046998.4,N,1.0
1505024335.0,286046998.7,N,0.9
1505024335.9,286046998.7,N,0.9
1505024355.8,286046996.6,Y,0.0
1505024375.6,286047000.7,P,0.8
1505024395.4,286047000.7,N,0.8
1505024415.3,286047001.2,N,0.8
1505024435.1,286046998.5,N,1.0
1505024455.9,286046998.4,N,1.1
1505024475.7,286047000.9,N,1.1
1505024495.5,286046999.8,N,1.1
1505024515.4,286046998.4,N,1.1
1505024535.2,286047000.8,N,1.1
1505024555.1,286046998.6,N,1.1
1505024556.0,286046998.6,N,1.1
1505024575.8,286046998.1,N,1.1
1505024595.6,286047001.1,N,1.2
1505024615.5,286047000.8,N,1.2
1505024635.3,286046999.7,N,1.1
1505024655.2,286046998.6,N,1.1
1505024675.9,286046998.9,N,1.1
1505024695.7,286046999.1,N,1.1
1505024715.6,286046998.9,N,1.1
1505024735.4,286046998.1,N,1.1
1505024755.2,286047000.6,N,1.1
1505024775.1,286047000.2,N,1.1
1505024776.0,286047000.2,N,1.1
1505024795.8,286046998.5,N,1.1
1505024815.7,286046999.0,N,1.0
1505024835.5,286046996.7,Y,0.0
1505024855.3,286046999.5,P,0.0
1505024875.2,286047000.7,P,0.6
1505024895.0,286047000.7,N,0.6
1505024895.9,286047000.7,N,0.6
1505024915.8,286046999.9,N,0.5
1505024935.6,286047000.1,N,0.5
1505024955.4,286046998.2,Y,0.0
1505024975.3,286046998.7,P,0.7
1505024995.1,286047000.7,N,0.8
1505025015.9,286046998.5,N,0.9
1505025035.7,286047001.0,N,1.0
1505025055.5,286046998.2,N,1.1
1505025075.4,286046998.3,N,1.1
1505025095.2,286046998.3,N,1.1
1505025115.0,286046998.8,N,1.1
1505025115.9,286046998.8,N,1.0
1505025135.8,286046999.1,N,1.0
1505025155.6,286046999.3,N,0.9
1505025175.5,286046999.3,N,0.9
1505025195.3,286046998.5,N,0.9
1505025215.1,286046998.5,N,0.9
1505025235.9,286047001.1,N,1.0
1505025255.7,286046998.4,N,0.9
1505025275.6,286046997.5,N,1.0
1505025295.4,286046998.0,N,1.0
1505025315.2,286046996.9,Y,0.0
1505025335.1,286046998.9,P,0.1
1505025336.0,286046998.9,P,0.1
1505025355.8,286047001.2,P,1.0
1505025375.7,286047000.9,N,1.0
1505025395.5,286046998.7,N,1.0
1505025415.3,286047001.0,N,1.1
1505025435.2,286047000.2,N,1.0
1505025455.0,286047000.9,N,1.0
1505025455.9,286047000.9,N,1.0
1505025475.8,286046998.6,N,1.0
1505025495.6,286047000.4,N,1.0
1505025515.4,286047000.6,N,1.0
1505025535.3,286047000.8,N,1.0
1505025555.1,286047004.1,Y,0.0
1505025575.9,286047003.7,P,1.8
1505025595.7,286047000.2,N,1.7
1505025615.5,286047000.6,N,1.5
1505025635.4,286047000.3,N,1.4
1505025655.2,286047002.4,N,1.4
1505025675.0,286047004.0,N,1.6
1505025675.9,286047004.0,N,1.7
1505025695.8,286047004.4,N,1.8
1505025715.6,286047002.5,N,1.7
1505025735.5,286047001.7,N,1.6
1505025755.3,286047003.1,N,1.6
1505025775.1,286047004.2,N,1.6
1505025795.9,286047004.4,N,1.6
1505025815.7,286047002.2,N,1.6
1505025835.5,286047003.9,N,1.6
1505025855.4,286047002.1,N,1.5
1505025875.2,286047000.4,N,1.6
1505025895.1,286047003.4,N,1.5
1505025896.0,286047003.4,N,1.5
1505025915.8,286047006.2,Y,0.0
1505025935.6,286047004.3,P,0.9
1505025955.5,286047003.1,P,0.7
1505025975.3,286047001.6,N,1.0
1505025995.2,286047001.4,N,1.1
1505026015.9,286047002.1,N,1.0
1505026035.7,286047001.4,N,1.0
1505026055.6,286047002.1,N,0.9
1505026075.4,286047002.0,N,0.9
1505026095.3,286047002.8,Y,0.0
1505026115.1,286046999.8,P,1.2
1505026116.0,286046999.8,N,1.2
1505026135.8,286046998.7,N,1.3
1505026155.7,286046998.6,N,1.3
1505026175.5,286046998.5,N,1.3
1505026195.3,286046998.0,N,1.3
1505026215.2,286046998.3,N,1.3
1505026235.0,286046999.3,N,1.2
1505026235.9,286046999.3,N,1.2
1505026255.8,286046999.6,N,1.1
1505026275.6,286046999.1,N,1.1
1505026295.4,286046999.0,N,1.0
1505026315.3,286046995.3,Y,0.0
1505026335.1,286046997.5,P,0.9
1505026355.9,286046995.2,P,1.7
1505026375.7,286046998.0,N,1.5
1505026395.5,286046998.0,N,1.3
1505026415.4,286046998.7,N,1.3
1505026435.2,286046998.3,N,1.2
1505026455.1,286046999.6,N,1.3
1505026456.0,286046999.6,N,1.3
1505026475.8,286047000.5,N,1.4
1505026495.6,286047004.2,N,2.1
1505026515.5,286047001.5,N,2.1
1505026535.3,286047003.2,N,2.3
1505026555.2,286047005.0,N,2.6
1505026575.9,286047003.2,N,2.7
1505026595.7,286047002.7,N,2.7
1505026615.6,286047001.9,N,2.6
1505026635.4,286047005.9,N,2.8
1505026655.2,286047004.1,N,2.9
1505026675.1,286047004.0,N,2.9
1505026676.0,286047004.0,N,2.9
1505026695.8,286047000.1,N,2.8
1505026715.7,286046998.6,N,2.8
1505026735.5,286046996.6,N,2.9
1505026755.3,286046996.8,N,2.9
1505026775.2,286046996.9,N,3.0
1505026795.0,286046997.9,N,3.0
1505026795.9,286046997.9,N,2.9
